Location: Bergnerzell
(49.1816°N, 10.2565°E)
Time: 19:42:56
(UTC+00:00)

Cosmos 1745 Rocket - Pass Details

Date: 23 May 2024
Orbit: 953 x 997 km, 83.0° (Epoch: 23 June)

Event Time Altitude Azimuth Distance (km) Brightness Sun altitude
Exits shadow 00:48:38 23° 176° (S) 1,938 5.1 -17.2°
Maximum altitude 00:52:41 74° 96° (E) 1,018 4.1 -16.9°
Drops below altitude 10° 00:58:59 10° 12° (NNE) 2,751 7.6 -16.5°
Sets 01:01:31 0° 11° (N) 3,710 8.6 -16.3°
